Temp
66 66 62 57 48 43 37 44 46 49 51 55 59 57 56 55 56 51 64 68 70 71 77 77 78 79 79 79 79 78 78 79 79 79 78 78 78 78 78 79 79 79 79 79 80 80 79 78 78
64 68 58 49 42 36 39 44 49 50 53 56 59 57 57 54 59 61 62 67 69 70 73 74 77 78 78 78 78 78 78 78 79 79 78 78 78 78 79 79 79 79 79 79 79 78 77 77 77
66 65 52 45 37 38 40 46 48 53 55 55 55 59 58 55 61 60 61 67 67 66 68 71 77 77 78 78 78 78 77 78 78 78 78 78 78 79 79 79 79 78 78 78 77 76 77 76 76
59 55 50 42 38 43 45 47 52 52 56 58 55 55 58 60 60 62 63 64 65 63 64 69 76 77 77 78 77 78 77 78 78 78 77 78 78 79 78 78 77 76 76 77 76 76 76 76 76
54 48 40 36 40 44 44 51 52 50 51 53 55 52 53 60 63 63 63 67 65 65 66 67 75 76 77 77 77 77 78 78 77 77 78 78 78 78 78 77 76 76 76 76 76 76 76 75 75
47 46 36 35 40 45 45 48 49 49 48 52 53 53 53 60 62 62 64 62 65 65 66 67 70 72 74 75 76 76 77 77 77 77 77 78 78 78 77 76 76 76 76 76 76 76 76 75 76
44 41 36 36 41 43 48 49 47 49 47 49 54 51 53 57 61 62 61 62 63 64 65 64 64 66 69 71 73 75 76 76 76 76 76 76 76 76 77 76 76 76 76 75 75 75 75 75 75
46 43 37 38 40 42 48 50 51 49 49 54 55 50 49 57 61 61 60 60 61 62 63 62 62 63 63 63 69 71 72 73 74 75 73 73 72 73 75 74 74 75 75 75 75 75 75 75 74
50 39 35 40 42 44 49 48 52 54 51 51 52 54 58 61 60 58 57 59 59 63 62 61 62 62 63 64 67 67 69 71 70 71 69 69 72 72 71 71 72 74 74 74 74 74 74 72 71
44 37 41 46 47 45 49 49 49 48 48 50 52 57 59 59 57 55 55 56 56 58 61 61 60 61 62 67 63 61 64 65 71 72 72 70 70 71 72 69 70 72 73 73 74 73 72 70 65
44 40 47 49 50 51 48 49 50 46 45 50 49 53 57 56 56 55 56 55 56 57 58 60 59 60 59 60 60 57 58 60 66 71 71 72 70 68 70 69 69 70 68 70 71 70 68 65 63
41 48 49 50 52 50 48 50 48 48 49 53 54 56 55 55 54 55 55 55 55 56 58 59 59 59 59 58 58 58 56 58 62 68 71 70 69 68 69 71 70 71 70 69 68 68 66 64 63
43 47 51 51 50 49 50 47 46 47 53 54 55 55 54 54 55 55 56 55 54 55 57 57 58 57 59 58 58 58 57 56 59 65 69 71 70 69 69 70 71 71 71 71 69 68 65 63 62
47 47 47 50 50 51 48 47 47 49 52 54 54 53 54 54 55 54 54 54 54 56 55 57 57 57 57 57 57 57 58 57 57 60 66 71 71 70 69 69 71 72 72 71 71 69 65 64 62
48 41 44 46 49 48 49 42 43 51 52 52 54 55 55 54 55 54 53 53 54 54 55 55 56 58 57 56 56 58 58 63 56 59 63 68 70 71 70 71 70 72 73 71 71 69 66 63 62
40 38 30 43 46 49 46 35 48 53 48 49 51 52 52 53 54 54 54 53 53 53 53 55 58 57 56 56 57 59 60 60 61 57 61 66 69 71 71 70 71 73 72 70 69 67 65 63 62
35 29 33 35 47 48 47 37 47 52 49 48 50 50 50 51 52 52 53 52 52 52 52 53 54 54 56 56 57 57 59 60 61 61 59 64 68 70 69 70 70 72 71 69 68 67 66 63 62
28 29 33 32 41 46 41 40 46 48 50 47 47 46 48 48 50 52 52 52 52 52 52 52 54 54 55 55 56 57 57 59 61 62 62 62 66 68 69 69 70 71 69 68 68 68 66 65 65
36 32 30 35 43 39 38 39 43 46 45 43 43 43 45 46 49 50 51 51 51 51 51 52 52 54 53 52 52 54 54 56 58 59 61 62 64 67 68 68 69 69 68 68 67 67 65 64 65
36 32 30 36 41 38 37 37 43 45 46 48 47 42 44 45 47 49 50 50 50 50 50 51 52 53 53 53 54 54 56 57 59 60 60 62 64 66 67 68 67 69 68 68 67 66 65 65 64
33 30 30 31 36 36 33 30 35 41 44 44 44 43 44 45 45 47 49 50 50 49 49 52 53 54 54 54 54 54 55 59 57 57 57 60 63 65 67 68 67 67 68 67 67 66 66 62 63
30 38 37 35 33 22 33 20 29 35 38 39 40 41 43 44 46 48 49 49 52 51 52 53 54 54 57 57 56 54 53 54 57 58 57 58 62 64 66 67 67 67 68 67 68 67 66 65 62
34 39 36 35 34 30 26 20 28 36 35 37 39 41 43 45 47 47 48 50 51 52 50 51 53 56 56 56 56 55 55 57 59 59 56 57 60 63 65 67 66 66 66 66 67 67 66 66 65
43 37 33 30 29 23 27 24 26 29 35 36 40 43 45 47 47 48 49 50 50 50 50 53 51 54 56 55 56 54 53 56 58 57 56 57 58 61 64 65 66 66 66 66 66 65 66 65 66
37 29 17 16 13 17 28 25 28 37 40 42 42 43 44 45 45 46 46 46 48 48 49 50 52 53 55 56 56 56 54 53 55 57 57 57 56 57 59 61 64 64 65 65 65 64 63 63 63
33 30 16 9 14 17 29 24 31 39 41 44 46 45 45 46 46 46 46 46 47 47 48 48 50 51 54 55 55 56 58 56 55 57 57 58 59 58 58 60 62 62 62 63 64 64 64 63 62
32 25 35 23 19 22 24 29 37 39 37 39 43 44 44 44 45 45 46 46 46 47 47 47 48 50 53 54 54 56 57 58 56 56 56 57 58 59 58 59 60 60 61 62 62 62 62 63 61
35 36 23 22 14 15 20 22 24 34 38 40 40 41 43 44 45 45 45 46 46 47 46 47 47 48 51 54 54 55 55 56 58 57 56 57 58 58 58 58 59 59 60 61 60 61 62 61 62
31 28 29 24 25 14 14 22 33 37 38 39 40 42 43 43 43 44 45 46 46 45 45 45 46 47 48 52 53 53 53 54 55 57 57 58 57 58 58 58 58 58 58 58 58 60 61 61 60
33 31 30 21 17 20 19 21 38 38 39 40 41 43 43 43 44 44 44 44 43 43 43 44 45 45 47 49 52 52 52 53 53 55 57 57 56 56 58 58 58 58 59 58 57 57 59 58 59
MSLP
1014.06 1013.87 1013.93 1014.45 1016.31 1017.09 1016.74 1015.72 1014.63 1013.85 1013.41 1012.90 1012.48 1012.57 1013.12 1013.67 1013.92 1014.71 1014.26 1014.19 1014.03 1013.77 1013.35 1013.16 1013.02 1013.03 1013.25 1013.41 1013.50 1013.73 1013.96 1014.10 1014.21 1014.30 1014.47 1014.56 1014.63 1014.75 1014.81 1014.85 1014.99 1015.19 1015.38 1015.49 1015.50 1015.57 1015.80 1016.08 1016.37
1014.25 1014.02 1014.40 1015.70 1016.87 1017.60 1016.80 1015.56 1014.62 1013.88 1013.41 1013.14 1012.99 1013.13 1013.49 1014.18 1014.18 1014.36 1014.42 1014.37 1014.08 1013.95 1013.64 1013.47 1013.23 1013.01 1013.18 1013.40 1013.61 1013.77 1013.91 1014.02 1014.16 1014.29 1014.50 1014.63 1014.72 1014.82 1014.98 1014.99 1015.05 1015.17 1015.37 1015.56 1015.59 1015.73 1015.98 1016.40 1016.70
1014.28 1014.51 1015.59 1016.52 1017.31 1017.18 1016.38 1015.16 1014.55 1013.95 1013.57 1013.31 1013.44 1013.54 1013.96 1014.53 1014.48 1014.57 1014.50 1014.48 1014.25 1014.18 1014.05 1013.77 1013.46 1013.22 1013.13 1013.27 1013.51 1013.77 1013.92 1014.01 1014.16 1014.30 1014.54 1014.70 1014.79 1014.91 1015.03 1015.13 1015.18 1015.16 1015.28 1015.53 1015.69 1015.96 1016.24 1016.50 1016.83
1014.83 1015.55 1016.96 1017.03 1016.99 1016.20 1015.53 1014.84 1014.35 1014.02 1013.80 1013.64 1013.79 1014.27 1014.37 1014.72 1014.67 1014.54 1014.66 1014.53 1014.36 1014.41 1014.14 1013.92 1013.67 1013.53 1013.42 1013.31 1013.47 1013.64 1013.82 1014.01 1014.16 1014.35 1014.54 1014.71 1014.84 1014.96 1015.06 1015.14 1015.31 1015.37 1015.37 1015.54 1015.89 1016.11 1016.39 1016.68 1016.82
1015.72 1016.87 1017.74 1017.73 1016.94 1015.94 1015.28 1014.76 1014.47 1014.37 1014.20 1014.22 1014.17 1014.66 1014.89 1014.97 1014.95 1014.78 1014.74 1014.51 1014.45 1014.43 1014.15 1014.03 1013.90 1013.79 1013.70 1013.54 1013.46 1013.39 1013.60 1013.84 1014.14 1014.30 1014.49 1014.65 1014.81 1015.00 1015.13 1015.24 1015.40 1015.49 1015.57 1015.68 1015.91 1016.18 1016.41 1016.62 1016.80
1016.98 1017.80 1018.34 1017.97 1016.97 1016.02 1015.40 1015.10 1014.77 1014.72 1014.62 1014.43 1014.53 1014.79 1015.15 1014.96 1014.79 1014.59 1014.60 1014.65 1014.50 1014.51 1014.33 1014.15 1014.04 1013.99 1013.89 1013.75 1013.54 1013.37 1013.45 1013.55 1013.86 1014.17 1014.37 1014.48 1014.65 1014.83 1014.99 1015.20 1015.44 1015.59 1015.76 1015.88 1016.06 1016.26 1016.45 1016.68 1016.86
1017.55 1018.29 1018.22 1017.61 1016.80 1016.18 1015.51 1015.27 1015.14 1014.99 1014.88 1014.81 1014.63 1015.07 1015.30 1015.17 1014.85 1014.71 1014.69 1014.68 1014.72 1014.63 1014.50 1014.33 1014.20 1014.11 1013.99 1013.93 1013.79 1013.55 1013.41 1013.47 1013.58 1013.83 1014.12 1014.32 1014.51 1014.68 1014.83 1014.99 1015.27 1015.50 1015.73 1015.95 1016.16 1016.43 1016.58 1016.71 1016.85
1018.03 1018.51 1018.39 1017.52 1016.89 1016.12 1015.50 1015.34 1015.26 1015.27 1015.00 1014.89 1014.70 1014.84 1015.10 1014.76 1014.66 1014.70 1014.78 1014.79 1014.80 1014.84 1014.71 1014.57 1014.32 1014.21 1014.14 1014.03 1013.85 1013.69 1013.53 1013.37 1013.40 1013.53 1013.78 1014.07 1014.32 1014.54 1014.74 1014.89 1015.08 1015.31 1015.62 1015.88 1016.14 1016.39 1016.60 1016.77 1016.96
1017.92 1018.63 1018.64 1017.69 1017.11 1016.50 1015.94 1015.81 1015.49 1015.34 1015.27 1015.17 1014.87 1014.71 1014.61 1014.60 1014.80 1014.89 1014.93 1014.94 1014.91 1014.81 1014.77 1014.61 1014.48 1014.33 1014.20 1014.07 1013.88 1013.80 1013.66 1013.49 1013.36 1013.43 1013.62 1013.85 1014.14 1014.39 1014.66 1014.85 1015.02 1015.22 1015.48 1015.75 1016.04 1016.31 1016.55 1016.74 1016.95
1018.22 1018.66 1018.05 1017.41 1017.07 1016.78 1016.35 1016.26 1016.07 1015.90 1015.67 1015.38 1015.19 1014.85 1014.65 1014.67 1014.94 1015.07 1015.22 1015.23 1015.08 1014.94 1014.72 1014.72 1014.70 1014.65 1014.42 1014.09 1014.00 1013.94 1013.70 1013.58 1013.39 1013.25 1013.32 1013.65 1013.80 1014.04 1014.34 1014.67 1014.90 1015.11 1015.38 1015.62 1015.86 1016.15 1016.45 1016.77 1017.06
1018.61 1018.61 1018.17 1017.67 1017.30 1017.07 1016.91 1016.69 1016.48 1016.36 1016.16 1015.59 1015.37 1015.20 1015.04 1014.98 1015.02 1015.20 1015.14 1015.16 1015.19 1014.95 1014.83 1014.83 1014.78 1014.57 1014.59 1014.41 1014.21 1014.14 1013.92 1013.65 1013.39 1013.24 1013.10 1013.32 1013.55 1013.79 1014.16 1014.54 1014.80 1015.02 1015.25 1015.61 1015.79 1016.00 1016.27 1016.64 1017.00
1018.71 1018.34 1018.19 1017.81 1017.56 1017.36 1017.19 1017.05 1016.84 1016.49 1015.98 1015.45 1015.39 1015.21 1015.18 1015.21 1015.20 1015.09 1015.07 1015.17 1015.11 1014.97 1014.86 1014.77 1014.67 1014.58 1014.37 1014.37 1014.23 1014.05 1014.08 1013.76 1013.41 1013.16 1013.09 1012.98 1013.28 1013.62 1013.80 1014.04 1014.42 1014.67 1014.99 1015.34 1015.66 1015.88 1016.06 1016.37 1016.76
1018.94 1018.60 1018.08 1017.65 1017.54 1017.46 1017.25 1017.05 1017.05 1016.31 1015.55 1015.44 1015.43 1015.28 1015.04 1015.09 1015.04 1014.84 1014.88 1014.96 1014.94 1014.94 1014.82 1014.63 1014.52 1014.38 1014.15 1014.16 1013.95 1013.79 1013.70 1013.64 1013.39 1013.06 1012.89 1012.90 1012.67 1013.01 1013.31 1013.53 1013.88 1014.19 1014.49 1014.76 1015.21 1015.60 1015.99 1016.26 1016.47
1019.22 1018.88 1018.40 1017.77 1017.28 1017.03 1017.03 1016.64 1016.84 1015.86 1015.43 1015.26 1015.30 1015.10 1014.87 1014.78 1014.70 1014.79 1014.75 1014.87 1014.94 1014.90 1014.84 1014.47 1014.29 1014.12 1013.86 1013.77 1013.65 1013.45 1013.17 1013.03 1013.01 1012.86 1012.59 1012.47 1012.45 1012.24 1012.68 1013.05 1013.32 1013.54 1013.85 1014.24 1014.59 1014.95 1015.62 1015.88 1016.15
1019.44 1019.36 1018.67 1017.86 1017.46 1016.92 1016.60 1016.60 1016.12 1015.33 1015.48 1015.33 1015.08 1014.80 1014.66 1014.63 1014.43 1014.63 1014.80 1015.04 1014.97 1014.81 1014.61 1014.35 1014.11 1013.79 1013.58 1013.36 1013.16 1012.88 1012.67 1012.37 1012.48 1012.40 1012.19 1012.01 1012.00 1012.07 1011.78 1012.11 1012.52 1012.71 1013.14 1013.70 1014.11 1014.60 1015.19 1015.63 1015.93
1020.08 1020.07 1019.74 1018.32 1017.69 1016.76 1016.99 1016.19 1015.73 1015.06 1015.30 1015.31 1015.00 1014.77 1014.75 1014.57 1014.45 1014.51 1014.76 1014.84 1014.74 1014.69 1014.51 1014.09 1013.87 1013.57 1013.19 1012.90 1012.68 1012.38 1012.06 1011.86 1011.68 1011.74 1011.75 1011.52 1011.40 1011.49 1011.63 1011.35 1011.53 1011.82 1012.39 1012.99 1013.63 1014.16 1014.78 1015.25 1015.52
1021.25 1021.17 1020.50 1019.31 1017.89 1017.36 1017.17 1016.67 1015.65 1015.05 1015.28 1015.22 1014.94 1014.82 1014.80 1014.65 1014.62 1014.61 1014.64 1014.65 1014.50 1014.36 1014.14 1013.88 1013.55 1013.23 1012.78 1012.48 1012.14 1011.77 1011.40 1011.31 1010.98 1010.89 1011.00 1010.89 1010.81 1010.80 1010.95 1011.17 1010.78 1010.97 1011.57 1012.27 1012.90 1013.43 1013.97 1014.63 1015.05
1021.63 1021.38 1020.64 1019.82 1018.33 1017.63 1017.17 1016.39 1015.46 1015.21 1015.08 1015.03 1014.79 1014.72 1014.82 1014.73 1014.36 1014.32 1014.36 1014.22 1014.09 1013.91 1013.64 1013.50 1013.09 1012.75 1012.39 1012.07 1011.71 1011.18 1010.79 1010.56 1010.25 1010.08 1010.01 1010.13 1010.07 1010.13 1010.20 1010.37 1010.37 1010.34 1010.75 1011.34 1012.08 1012.56 1013.17 1013.63 1014.15
1021.20 1021.18 1020.72 1019.62 1018.45 1018.10 1017.08 1016.46 1014.95 1014.90 1014.78 1014.61 1014.62 1014.60 1014.62 1014.67 1014.19 1014.11 1013.97 1013.83 1013.60 1013.35 1013.14 1012.93 1012.64 1012.29 1011.96 1011.75 1011.40 1010.83 1010.23 1009.89 1009.56 1009.34 1009.19 1009.14 1009.33 1009.34 1009.54 1009.60 1009.67 1009.61 1009.84 1010.21 1010.90 1011.59 1012.40 1013.06 1013.58
1020.68 1020.75 1020.38 1019.35 1018.61 1018.27 1017.29 1015.96 1014.95 1014.44 1013.93 1013.53 1013.70 1014.19 1014.35 1014.43 1014.04 1013.75 1013.59 1013.46 1013.19 1012.83 1012.68 1012.40 1012.04 1011.63 1011.29 1011.24 1010.86 1010.52 1009.87 1009.19 1008.94 1008.72 1008.58 1008.41 1008.41 1008.49 1008.72 1008.89 1008.95 1009.06 1008.80 1009.36 1009.92 1010.59 1011.35 1012.07 1012.72
1020.25 1020.27 1020.02 1019.80 1018.96 1018.28 1017.72 1015.90 1014.43 1013.36 1012.97 1012.85 1013.02 1013.26 1013.75 1013.91 1013.70 1013.35 1013.06 1012.76 1012.51 1012.54 1012.11 1011.80 1011.32 1010.84 1010.56 1010.49 1010.33 1009.92 1009.38 1008.67 1008.42 1008.27 1008.00 1007.92 1007.92 1007.78 1007.87 1008.01 1008.18 1008.43 1008.71 1007.83 1008.84 1009.47 1009.96 1010.87 1011.67
1019.92 1019.38 1019.57 1019.60 1019.80 1019.48 1018.61 1017.78 1015.06 1013.68 1013.03 1012.83 1013.11 1013.38 1013.52 1013.62 1013.21 1012.87 1012.65 1012.55 1012.50 1012.02 1011.68 1011.31 1010.63 1010.25 1009.89 1009.62 1009.33 1009.07 1008.58 1007.85 1007.43 1007.22 1007.02 1006.97 1006.97 1006.97 1007.07 1007.24 1007.39 1007.65 1007.81 1008.06 1007.36 1008.29 1008.82 1009.62 1010.33
1019.50 1019.27 1019.56 1019.68 1019.94 1020.13 1019.07 1018.77 1015.00 1013.90 1013.31 1013.06 1013.05 1013.03 1013.04 1012.97 1012.67 1012.56 1012.53 1012.07 1011.71 1011.54 1011.41 1011.00 1010.31 1009.79 1009.38 1009.02 1008.71 1008.25 1007.79 1007.17 1006.70 1006.55 1006.38 1006.28 1006.26 1006.14 1006.19 1006.34 1006.58 1006.72 1007.10 1007.27 1006.94 1006.96 1007.61 1007.94 1008.71
1019.23 1019.42 1019.58 1019.98 1020.36 1020.33 1018.81 1018.56 1015.41 1014.05 1013.04 1012.83 1012.70 1012.61 1012.51 1012.32 1012.26 1012.20 1011.89 1011.73 1011.56 1011.52 1011.17 1010.67 1010.15 1009.32 1008.68 1008.21 1007.83 1007.63 1007.24 1006.60 1006.09 1005.93 1005.90 1005.77 1005.65 1005.51 1005.48 1005.54 1005.74 1006.06 1006.22 1006.43 1006.59 1006.57 1006.58 1007.11 1007.51
1019.71 1020.18 1020.77 1020.96 1021.08 1019.95 1018.74 1018.25 1014.72 1013.16 1012.46 1012.14 1012.17 1012.10 1012.02 1011.94 1011.92 1011.87 1011.90 1011.94 1011.54 1011.08 1010.87 1010.43 1009.83 1009.24 1008.42 1007.73 1007.13 1006.64 1006.25 1005.92 1005.55 1005.15 1005.07 1005.11 1005.03 1005.05 1004.94 1004.89 1005.00 1005.22 1005.40 1005.63 1006.03 1006.48 1005.98 1007.06 1007.01
1020.24 1021.04 1022.23 1022.63 1022.03 1020.50 1018.59 1017.12 1013.90 1012.46 1011.66 1011.36 1011.45 1011.61 1011.75 1011.79 1011.80 1011.80 1011.79 1011.59 1011.32 1011.19 1010.85 1010.25 1009.52 1008.78 1008.10 1007.44 1006.69 1005.95 1005.30 1004.95 1004.58 1004.23 1004.14 1004.25 1004.16 1004.14 1004.24 1004.37 1004.47 1004.48 1004.65 1004.91 1005.14 1005.32 1005.50 1006.37 1006.80
1020.28 1021.11 1021.72 1022.42 1022.56 1021.86 1018.64 1016.12 1013.41 1012.15 1011.72 1011.41 1011.33 1011.54 1011.56 1011.47 1011.49 1011.53 1011.49 1011.34 1011.15 1011.06 1010.89 1010.28 1009.50 1008.71 1007.91 1007.16 1006.49 1005.73 1004.99 1004.17 1003.78 1003.60 1003.55 1003.50 1003.48 1003.49 1003.48 1003.65 1003.87 1003.94 1004.16 1004.36 1004.61 1005.01 1005.28 1005.68 1006.00
1019.91 1020.90 1021.79 1022.93 1023.46 1022.03 1019.02 1017.11 1014.37 1012.53 1011.91 1011.69 1011.61 1011.42 1011.37 1011.23 1011.22 1011.29 1011.35 1011.19 1010.89 1010.75 1010.51 1009.97 1009.39 1008.77 1007.92 1007.11 1006.43 1005.64 1004.98 1004.18 1003.27 1002.83 1002.71 1002.73 1002.66 1002.78 1002.85 1003.03 1003.19 1003.27 1003.48 1003.73 1004.07 1004.45 1004.66 1005.13 1005.51
1020.39 1020.84 1021.92 1023.06 1023.64 1023.66 1021.66 1016.05 1013.11 1012.19 1011.54 1011.43 1011.22 1011.02 1010.98 1010.97 1011.09 1011.05 1010.99 1010.74 1010.52 1010.32 1010.21 1009.86 1009.34 1008.79 1007.92 1007.21 1006.39 1005.49 1004.62 1003.91 1003.17 1002.44 1002.06 1001.89 1002.07 1002.14 1002.20 1002.24 1002.51 1002.81 1003.07 1003.25 1003.64 1003.87 1004.05 1004.42 1004.89
1020.43 1020.62 1021.46 1022.72 1023.38 1023.34 1022.53 1017.01 1012.61 1012.07 1011.74 1011.32 1010.81 1010.73 1010.55 1010.62 1010.46 1010.33 1010.41 1010.46 1010.38 1010.13 1009.98 1009.72 1009.26 1008.95 1008.37 1007.52 1006.56 1005.58 1004.68 1003.81 1003.13 1002.33 1001.73 1001.51 1001.59 1001.65 1001.60 1001.63 1001.82 1002.10 1002.44 1002.66 1003.01 1003.39 1003.70 1003.92 1004.05
Wind_Speed
5 5 2 6 6 6 3 5 3 2 1 3 3 3 6 4 2 5 2 4 5 7 7 7 1 9 11 11 12 10 10 9 8 8 8 9 10 11 12 12 11 10 9 9 11 11 13 13 13
4 3 5 3 6 2 6 4 5 2 2 5 3 2 6 3 2 4 3 2 6 5 7 8 10 4 10 10 10 11 11 10 9 8 9 9 11 11 11 10 11 11 11 11 9 11 14 13 13
4 4 5 5 4 6 6 4 4 2 3 2 2 5 3 2 2 3 1 4 6 7 6 6 12 11 8 9 11 11 11 11 10 10 10 10 11 11 11 10 9 10 9 10 8 14 14 15 13
4 6 5 4 6 6 5 4 3 1 2 5 1 5 2 3 2 4 3 1 6 6 6 8 12 12 11 9 10 12 13 13 11 11 11 10 11 11 10 8 7 6 7 11 14 16 15 13 13
5 4 3 1 4 3 2 2 3 2 1 3 3 3 2 3 3 6 4 4 6 6 6 7 11 12 11 11 9 12 13 13 12 12 13 12 12 11 9 8 7 9 10 14 15 15 16 15 13
5 3 3 4 4 2 2 1 1 2 1 3 4 4 2 2 1 2 4 5 5 5 6 6 8 11 12 13 11 8 13 14 13 13 13 13 13 12 10 9 10 11 11 13 13 14 15 15 13
6 4 4 3 4 2 3 2 3 4 3 2 3 5 3 2 1 1 3 4 4 5 6 6 6 7 11 11 11 12 9 13 14 14 14 13 12 11 13 11 12 14 13 13 12 13 14 15 14
4 4 1 3 3 5 2 1 2 2 4 2 2 5 5 4 2 4 2 3 5 3 3 6 6 6 6 7 10 11 13 8 12 14 14 12 11 10 10 11 12 14 13 13 12 12 13 13 12
3 4 2 4 1 3 2 1 2 2 1 2 2 4 2 2 2 1 3 4 4 4 4 4 6 6 5 5 6 8 10 12 9 9 11 10 6 7 7 8 11 13 13 13 13 12 11 10 10
4 3 5 1 2 3 2 2 2 2 3 3 3 5 4 1 2 2 3 5 4 4 5 4 6 7 7 4 4 6 6 5 5 5 7 6 7 7 8 8 11 13 13 13 14 13 11 8 3
1 3 3 3 3 4 3 5 2 1 5 8 4 4 4 3 5 5 5 4 4 4 3 5 5 5 6 5 4 3 3 3 3 6 6 6 5 5 5 4 5 6 9 6 8 8 5 6 4
3 2 2 5 4 4 5 4 6 4 8 4 6 6 4 9 8 8 6 5 3 4 4 4 5 5 5 3 4 4 3 4 3 4 6 5 5 6 6 6 7 8 6 7 6 5 5 6 6
2 4 4 5 7 6 5 8 6 7 12 8 9 9 10 8 8 6 5 3 0 3 6 7 5 5 5 5 4 4 4 4 5 4 6 6 7 8 7 8 8 7 7 8 8 7 5 6 6
4 5 8 7 8 6 7 8 4 7 5 9 7 10 10 10 8 3 3 3 3 5 7 7 6 6 6 6 6 5 4 5 5 5 5 8 8 8 9 9 9 9 9 9 9 9 7 7 5
5 6 7 6 4 6 5 6 8 13 3 11 13 10 9 5 4 6 2 4 5 6 7 8 8 6 6 6 6 5 5 7 5 6 7 9 9 11 10 10 10 10 10 11 10 9 7 5 4
5 4 5 6 8 5 5 8 8 9 3 7 8 8 3 5 6 5 4 5 6 7 7 8 8 10 9 8 7 7 7 6 7 5 6 10 11 12 11 10 11 11 10 10 10 8 8 7 6
5 4 6 8 5 6 3 9 8 4 5 8 8 7 6 7 6 6 6 7 7 7 7 8 8 10 11 9 8 8 9 8 7 7 6 10 12 13 11 10 10 13 11 11 10 9 10 8 6
7 6 5 8 6 7 10 17 17 12 12 11 10 7 7 7 10 6 7 8 8 8 7 7 8 9 9 7 8 7 7 8 8 8 8 11 10 13 11 11 11 13 11 11 11 13 10 9 9
5 6 9 7 12 5 12 13 19 10 8 9 10 8 8 8 7 6 7 7 7 7 6 7 7 10 7 5 6 6 7 7 8 8 11 12 11 13 13 11 12 12 13 14 15 13 12 9 8
5 6 9 10 5 5 11 19 18 12 13 14 13 8 9 5 6 7 8 5 6 6 7 8 9 9 7 5 6 6 7 7 8 8 10 13 13 14 13 13 11 13 12 15 16 16 10 10 10
4 6 5 7 6 6 7 10 7 6 8 6 7 7 7 9 9 7 7 6 7 7 8 8 9 9 8 9 7 8 9 10 9 7 6 9 13 13 15 15 13 13 12 13 16 16 17 11 10
5 4 5 6 8 4 5 9 7 6 7 3 4 6 7 8 7 5 6 7 6 8 7 8 9 10 10 10 9 12 11 11 9 10 7 8 12 14 14 15 14 12 10 13 15 15 15 13 12
9 3 6 4 6 4 2 2 10 4 4 4 7 8 8 8 6 6 7 7 7 7 7 8 10 11 11 10 10 9 11 11 9 8 9 10 10 13 14 15 14 14 10 12 14 17 19 14 13
8 5 3 2 1 3 3 4 8 3 4 3 5 8 8 7 6 6 6 6 7 7 7 8 8 10 11 10 10 11 13 12 9 8 8 7 7 8 12 14 13 12 12 11 14 13 15 15 15
6 5 5 6 5 7 2 1 11 6 7 7 10 9 8 6 5 6 7 6 7 8 8 7 7 11 10 11 11 10 12 11 13 11 9 9 7 6 9 9 12 10 11 11 9 9 8 8 12
3 1 4 4 4 7 3 6 8 4 7 6 7 6 6 6 5 6 7 7 7 7 9 9 9 11 10 11 12 11 11 8 9 12 9 8 9 8 8 10 10 9 9 9 10 8 8 10 12
3 2 2 2 1 5 5 8 10 4 2 3 6 5 7 7 7 6 6 6 7 6 7 8 9 10 10 11 10 11 11 11 10 11 9 9 8 7 9 9 9 8 8 10 9 8 8 10 12
4 1 4 3 5 7 6 7 7 5 7 6 7 9 8 8 7 5 5 7 5 5 5 7 7 9 11 11 10 9 10 11 9 10 11 10 9 9 8 8 9 9 9 9 8 9 8 10 9
3 2 3 4 3 3 6 10 8 7 7 10 11 9 9 8 7 7 7 6 6 5 5 6 7 10 12 12 11 10 9 10 10 8 10 10 9 9 9 9 8 7 7 7 8 9 9 11 11
2 5 5 5 5 3 3 13 5 7 8 8 10 9 8 8 8 8 7 5 6 5 4 6 6 7 8 10 12 13 11 11 11 9 7 6 7 6 9 8 9 8 8 7 9 9 10 12 13
Wind_Direction
335 319 84 45 65 62 265 258 291 216 171 333 318 127 112 40 103 189 240 24 34 19 13 25 23 180 178 170 167 171 172 173 170 160 158 156 153 153 152 151 151 154 163 163 163 165 133 122 121
333 334 45 85 92 86 267 264 242 243 292 314 120 95 46 78 98 120 86 351 61 34 18 7 355 230 187 186 186 180 179 181 179 172 171 166 164 162 162 158 155 160 168 172 177 151 128 128 132
347 27 83 105 122 180 207 218 232 278 2 61 83 57 87 121 104 109 119 99 62 37 24 2 5 1 201 196 194 196 191 191 190 170 175 174 172 172 172 167 163 169 175 185 164 137 128 138 138
34 11 31 103 204 237 204 193 223 223 359 42 80 69 38 346 15 136 104 55 61 27 10 5 7 4 356 216 207 203 203 203 201 178 176 178 181 181 182 176 163 160 169 153 140 139 142 143 145
35 59 61 353 257 265 235 187 166 169 94 23 354 150 68 44 124 126 130 59 53 9 0 1 3 356 347 342 248 216 208 208 206 195 186 183 185 187 192 155 157 150 139 143 146 149 150 151 152
44 81 77 221 259 270 287 320 130 97 319 332 91 97 170 228 209 75 51 68 27 8 354 355 356 353 344 336 330 268 224 209 205 202 199 191 190 190 196 173 167 166 160 157 158 160 159 158 156
102 89 210 212 231 186 225 342 169 169 169 203 162 125 196 242 219 90 31 31 32 8 352 346 347 353 350 341 330 321 283 230 214 205 202 202 196 198 195 184 178 181 176 170 170 173 168 166 161
95 81 270 259 220 245 216 145 149 213 238 294 214 179 195 206 292 120 110 360 339 344 342 332 331 336 341 344 335 325 322 282 232 220 204 198 197 201 195 181 183 185 180 177 175 182 180 176 166
118 57 301 294 309 294 329 224 338 310 269 302 245 164 181 222 154 69 7 346 346 332 326 334 322 321 325 315 323 344 327 318 256 233 219 208 192 198 190 182 184 186 182 180 180 187 188 184 172
75 127 224 238 254 263 319 357 326 337 327 272 275 288 282 284 168 298 289 293 295 300 316 345 341 326 326 314 324 321 320 312 298 235 215 204 203 186 187 184 188 189 184 183 184 187 189 186 177
101 206 324 320 321 345 315 309 317 293 255 238 246 245 292 270 304 293 278 280 289 297 325 342 342 331 324 317 321 309 306 306 300 271 218 207 195 195 185 183 195 196 187 187 189 183 178 182 181
358 277 263 301 1 334 301 296 301 238 237 242 247 262 277 285 279 270 255 275 302 327 311 319 325 322 313 312 304 289 292 289 283 272 258 208 193 195 189 195 195 199 186 183 189 190 183 179 188
235 298 302 284 289 259 268 256 242 268 267 271 269 279 275 269 267 276 259 186 291 306 302 296 299 293 287 289 275 282 269 259 257 256 258 238 215 199 193 198 196 198 192 193 191 194 187 192 191
307 273 282 279 267 251 238 249 173 257 266 279 269 266 262 251 257 213 210 269 308 296 289 291 293 283 271 261 262 257 261 256 248 242 238 247 235 213 198 197 205 201 199 199 199 195 194 198 195
288 307 316 277 314 272 195 266 234 246 258 269 272 264 273 274 203 219 217 280 284 280 285 290 294 280 272 268 262 259 247 259 243 237 231 230 238 240 210 198 198 203 199 198 202 199 193 189 198
349 35 353 302 321 284 158 276 274 272 215 262 277 268 265 216 202 209 245 276 272 272 272 280 283 287 281 268 264 262 259 245 245 231 230 232 228 234 232 215 198 202 197 194 199 192 198 202 199
4 286 287 301 291 274 217 305 277 277 252 276 279 279 270 241 260 266 264 261 262 258 260 266 271 271 277 275 269 259 255 252 243 238 225 232 228 229 227 235 210 202 197 195 199 194 198 198 200
275 284 255 258 281 291 279 263 271 268 277 264 269 268 233 230 247 248 267 268 260 255 254 256 266 269 270 279 275 266 255 248 242 234 227 225 229 225 224 224 237 200 200 195 196 201 198 197 202
255 257 263 264 280 272 267 273 272 263 267 259 251 235 235 240 255 258 265 261 271 268 265 264 272 273 267 274 274 268 258 250 247 235 229 220 224 225 224 226 221 228 197 197 194 198 195 201 188
267 272 277 285 277 281 279 273 274 251 249 238 237 218 222 236 262 268 269 258 263 273 273 273 267 264 257 254 260 262 272 261 247 240 233 228 224 221 224 226 225 220 220 196 196 196 190 205 181
261 229 257 262 302 261 289 281 270 280 259 253 208 191 192 219 245 270 289 306 305 294 280 278 278 279 273 264 265 266 260 257 251 246 230 231 230 225 223 225 221 224 229 201 197 196 196 196 193
280 211 247 283 320 297 60 291 288 285 294 270 190 177 210 230 240 262 292 293 294 290 290 286 291 292 288 279 267 256 259 259 244 241 226 218 221 222 224 225 225 223 221 239 201 195 202 194 194
246 238 257 264 276 324 298 89 269 326 297 232 206 213 228 231 236 268 278 285 291 293 289 289 288 293 289 281 269 265 265 260 254 243 228 222 225 225 222 222 224 222 220 232 232 201 198 202 196
289 297 334 53 122 268 242 155 285 236 222 199 225 228 226 237 253 271 285 300 296 286 285 282 284 304 306 290 278 264 266 267 248 235 235 228 224 224 226 224 221 221 223 228 227 245 208 204 207
9 13 338 359 6 234 355 189 246 266 248 205 210 226 232 241 264 282 297 292 290 316 313 299 315 309 313 304 294 278 263 262 258 241 231 227 224 224 232 219 216 215 218 222 214 221 203 226 220
315 26 141 281 302 288 304 233 257 258 275 212 200 219 222 245 254 270 283 297 299 310 314 314 327 323 321 313 310 300 280 251 243 238 228 230 228 219 216 217 221 208 202 212 220 232 215 214 206
327 358 310 251 271 286 264 288 304 325 358 198 215 225 238 256 257 261 291 297 297 302 300 312 315 315 316 325 318 312 304 277 249 240 228 227 222 220 215 208 213 208 208 211 207 215 216 207 211
165 188 23 7 320 296 293 284 243 263 241 253 258 246 248 251 261 260 261 267 276 297 305 318 317 312 318 327 323 318 312 311 280 243 226 222 223 219 211 212 214 214 209 206 200 210 204 196 213
139 197 134 138 186 223 309 272 221 235 221 218 238 240 243 247 248 248 243 259 287 313 333 317 330 330 334 327 329 326 329 326 313 268 235 221 220 219 217 212 208 211 212 208 204 215 207 207 203
259 200 155 129 254 197 171 273 262 256 277 234 246 241 244 236 246 244 248 245 262 282 323 328 335 328 321 323 331 337 339 348 342 312 254 220 224 220 223 213 210 210 213 204 198 206 211 208 210